User: anonymous
Location: Unspecified
(0.0000°N, 0.0000°E)
Time: 14:13:41
(UTC+02:00)
Language:

Ariane H10 - Orbit

View from above orbital plane
View from above orbital plane
View from above satellite
View from above satellite

Ground track
Ground track

The orbit data is extracted from the following two-line orbital elements,

1 21815U 91084C   14273.80492613  .00000227  00000-0  66305-3 0  6451
2 21815 003.8077 126.2497 7192078 350.5100 285.9777 02.31120769189399
Epoch (UTC): 30 September 2014 19:19:05
Eccentricity: 0.7192078
inclination: 3.8077°
perigee height: 407 km
apogee height: 35165 km
right ascension of ascending node: 126.2497°
argument of perigee: 350.5100°
revolutions per day: 2.31120769
mean anomaly at epoch: 285.9777°
orbit number at epoch: 18939

The dashed part of the orbit path shows where the satellite is in the earth's shadow,  

DLR